Flag for Austria Weather past 2 weeks in Lustenau, Vorarlberg, Austria

Now
43 °F

Passing clouds.


Feels Like: 36 °F
Forecast: 38 / 45 °F
Wind: 12 mph from West

Location: Saint Gallen-Altenrhein

Current Time: Apr 1, 2015 at 11:25:06 PM

Latest Report: Apr 1, 2015 at 10:50 PM


Visibility: N/A

Pressure: 30.27 "Hg

Humidity: 57%

Dew point: 28 °F

Location of LustenauLocation

Historic Weather in Lustenau — Graph

°F

Lustenau temperature yesterday

Maximum temperature yesterday: 64 °F (at 11:50 AM)
Minimum temperature yesterday: 45 °F (at 2:20 AM)
Average temperature yesterday: 55 °F

Past Weeks' High & Low Weather Summary

 TemperatureHumidityPressure
High64 °F (Mar 31, 11:50 AM)100% (Mar 18, 6:20 AM)30.27 "Hg (Mar 18, 6:20 AM)
Low32 °F (Mar 24, 4:50 AM)29% (Mar 25, 1:20 AM)29.56 "Hg (Mar 25, 1:50 PM)
Average46 °F75%29.98 "Hg
* Reported Mar 17 9:20 PM — Apr 1 10:20 PM, Lustenau, Weather by CustomWeather, © 2015

Note: Actual official high and low records may vary slightly from our data, if they occured in-between our weather recording intervals... More about our weather records

Advertising

Lustenau weather history for previous 24 hours

 ConditionsComfort  
Time TempWeatherWind HumidityBarometerVisibility
10:20 PM
Wed, Apr 1
41 °FPassing clouds.10 mph61%30.27 "HgN/A
9:50 PM41 °FPassing clouds.8 mph66%30.27 "HgN/A
9:20 PM41 °FPassing clouds.10 mph66%30.27 "HgN/A
8:50 PM37 °FSprinkles. Partly cloudy.7 mph87%30.27 "HgN/A
8:20 PM41 °FSprinkles. Broken clouds.16 mph70%30.27 "HgN/A
7:50 PM41 °FScattered showers. Broken clouds.14 mph70%30.24 "HgN/A
7:20 PM43 °FScattered showers. Broken clouds.9 mph61%30.21 "HgN/A
6:50 PM43 °FScattered showers. Partly sunny.12 mph61%30.21 "HgN/A
6:20 PM43 °FPartly sunny.13 mph61%30.21 "HgN/A
5:50 PM41 °FPartly sunny.9 mph70%30.21 "HgN/A
5:20 PM39 °FScattered showers. Broken clouds.13 mph81%30.21 "HgN/A
4:50 PM37 °FSprinkles. Broken clouds.17 mph87%30.21 "HgN/A
4:20 PM45 °FScattered showers. Broken clouds.12 mph66%30.18 "HgN/A
3:50 PM43 °FScattered showers. Broken clouds.12 mph71%30.18 "HgN/A
3:20 PM41 °FBroken clouds.2 mph76%30.18 "HgN/A
2:50 PM41 °FBroken clouds.7 mph76%30.18 "HgN/A
2:20 PM37 °FSprinkles. Broken clouds.9 mph93%30.21 "HgN/A
1:50 PM36 °FRain showers. Broken clouds.16 mph93%30.21 "Hg2 mi
1:20 PM37 °FSprinkles. Broken clouds.7 mph93%30.18 "HgN/A
12:50 PM39 °FSprinkles. Broken clouds.6 mph87%30.18 "HgN/A
12:20 PM36 °FSprinkles. Broken clouds.8 mph93%30.18 "HgN/A
11:50 AM39 °FSprinkles. Broken clouds.5 mph81%30.18 "HgN/A
11:20 AM39 °FBroken clouds.8 mph81%30.18 "HgN/A
10:50 AM37 °FBroken clouds.10 mph87%30.18 "HgN/A
10:20 AM36 °FLight snow. Broken clouds.15 mph93%30.18 "HgN/A
9:50 AM36 °FSprinkles. Broken clouds.13 mph100%30.15 "Hg5 mi
9:20 AM36 °FSprinkles. Broken clouds.15 mph93%30.15 "Hg2 mi
8:50 AM39 °FPartly sunny.24 mph81%30.12 "HgN/A
8:20 AM37 °FDrizzle. Partly sunny.15 mph87%30.12 "HgN/A
7:50 AM41 °FLight rain. Passing clouds.17 mph76%30.09 "HgN/A
7:20 AM41 °FScattered showers. Passing clouds.15 mph66%30.07 "HgN/A
6:50 AM41 °FPassing clouds.13 mph70%30.07 "HgN/A
6:20 AM41 °FPassing clouds.15 mph70%30.07 "HgN/A
5:50 AM39 °FSprinkles. Passing clouds.17 mph87%30.07 "HgN/A
5:20 AM41 °FLight rain. Partly cloudy.17 mph81%30.07 "HgN/A
4:50 AM43 °FOvercast.10 mph71%30.04 "HgN/A
4:20 AM43 °FPassing clouds.16 mph66%30.04 "HgN/A
3:50 AM43 °FPassing clouds.16 mph66%30.04 "HgN/A
3:20 AM43 °FPassing clouds.18 mph71%30.04 "HgN/A
2:50 AM41 °FPassing clouds.16 mph81%30.04 "HgN/A
2:20 AM46 °FSprinkles. Partly cloudy.10 mph57%30.04 "HgN/A
1:50 AM48 °FLight rain. Partly cloudy.18 mph50%30.04 "HgN/A
1:20 AM48 °FPassing clouds.21 mph50%30.01 "HgN/A
12:50 AM48 °FPassing clouds.18 mph50%30.01 "HgN/A
12:20 AM48 °FCool.15 mph54%29.98 "HgN/A
11:50 PM
Tue, Mar 31
48 °FPartly cloudy.21 mph58%29.98 "HgN/A
11:20 PM48 °FPassing clouds.14 mph58%29.98 "HgN/A
Weather by CustomWeather, © 2015

See weather overviewHow to use our weather pages